,,,PA_Meas_PMT16A,,PR_Meas_QMR101_102,,RH_Meas_QMH101,,SR_Meas_QMS101,,TA_Meas_QMH101,,GenWind,,GenWind,
date,time,status,PA,status,PR,status,RH,status,SR,status,TA,status,DirAvg,status,SpdAvg,
2011-07-13, 00:00:04,VALID,999.174,VALID,0,VALID,90.5178,VALID,0,VALID,22.121,VALID,31,VALID,0.733984,
2011-07-13, 00:01:04,VALID,999.125,VALID,0,VALID,90.4415,VALID,0.112286,VALID,22.1015,VALID,31,VALID,0.978125,
2011-07-13, 00:02:04,VALID,999.149,VALID,0,VALID,90.3347,VALID,0,VALID,22.0235,VALID,31,VALID,0.867969,
2011-07-13, 00:03:04,VALID,999.121,VALID,0,VALID,90.4034,VALID,0,VALID,22.004,VALID,31,VALID,0.733203,
2011-07-13, 00:04:04,VALID,999.183,VALID,0,VALID,90.4186,VALID,0,VALID,21.9845,VALID,31,VALID,0.631641,
2011-07-13, 00:05:04,VALID,999.121,VALID,0,VALID,90.5941,VALID,0,VALID,21.9845,VALID,287,VALID,0.796484,
2011-07-13, 00:06:04,VALID,999.137,VALID,0,VALID,90.8001,VALID,0,VALID,22.0235,VALID,276,VALID,0.0976563,
2011-07-13, 00:07:04,VALID,999.112,VALID,0,VALID,90.8459,VALID,0.112286,VALID,22.0235,VALID,276,VALID,0.439844,
2011-07-13, 00:08:04,VALID,999.105,VALID,0,VALID,90.8154,VALID,0,VALID,22.0235,VALID,32,VALID,1.37383,
2011-07-13, 00:09:04,VALID,999.138,VALID,0,VALID,90.5788,VALID,0.112286,VALID,22.0413,VALID,33,VALID,0.191797,
2011-07-13, 00:10:04,VALID,999.146,VALID,0,VALID,90.3423,VALID,0.112286,VALID,22.1015,VALID,33,VALID,0.355469,
2011-07-13, 00:11:04,VALID,999.105,VALID,0,VALID,90.0753,VALID,0.112286,VALID,22.1405,VALID,32,VALID,0.769922,
2011-07-13, 00:12:04,VALID,999.088,VALID,0,VALID,89.6404,VALID,0,VALID,22.2186,VALID,27,VALID,1.31133,
2011-07-13, 00:13:04,VALID,999.044,VALID,0,VALID,88.3586,VALID,0.112286,VALID,22.3161,VALID,28,VALID,1.79062,
2011-07-13, 00:14:04,VALID,999.015,VALID,0,VALID,86.2986,VALID,0.112286,VALID,22.5501,VALID,1,VALID,1.23984,
2011-07-13, 00:15:04,VALID,999.073,VALID,0,VALID,85.8027,VALID,0,VALID,22.5892,VALID,305,VALID,0.609766,
2011-07-13, 00:16:04,VALID,999.029,VALID,0,VALID,86.024,VALID,0,VALID,22.5909,VALID,305,VALID,0.498047,
2011-07-13, 00:17:04,VALID,998.981,VALID,0,VALID,86.3292,VALID,0,VALID,22.5909,VALID,305,VALID,0.646875,
2011-07-13, 00:18:04,VALID,998.917,VALID,0,VALID,86.0469,VALID,0,VALID,22.6104,VALID,305,VALID,0.583594,
2011-07-13, 00:19:04,VALID,998.904,VALID,0,VALID,85.7264,VALID,0,VALID,22.6299,VALID,305,VALID,0.289063,
2011-07-13, 00:20:04,VALID,998.92,VALID,0,VALID,85.5357,VALID,0,VALID,22.5696,VALID,344,VALID,0.881641,
2011-07-13, 00:21:04,VALID,998.918,VALID,0,VALID,85.7188,VALID,0,VALID,22.5128,VALID,11,VALID,0.185547,
2011-07-13, 00:22:04,VALID,998.912,VALID,0,VALID,85.9782,VALID,0,VALID,22.3941,VALID,11,VALID,0.767187,
2011-07-13, 00:23:04,VALID,998.912,VALID,0,VALID,86.3902,VALID,0,VALID,22.3763,VALID,11,VALID,0.583984,
2011-07-13, 00:24:04,VALID,998.89,VALID,0,VALID,86.8174,VALID,0,VALID,22.2983,VALID,66,VALID,1.42539,
2011-07-13, 00:25:04,VALID,998.886,VALID,0,VALID,86.8709,VALID,0,VALID,22.2202,VALID,66,VALID,1.06328,
2011-07-13, 00:26:04,VALID,998.887,VALID,0,VALID,87.2523,VALID,0,VALID,22.1812,VALID,66,VALID,1.09219,
2011-07-13, 00:27:04,VALID,998.885,VALID,0,VALID,87.588,VALID,0,VALID,22.2007,VALID,66,VALID,1.34258,
2011-07-13, 00:28:04,VALID,998.85,VALID,0,VALID,87.4736,VALID,0,VALID,22.2592,VALID,48,VALID,1.24336,
2011-07-13, 00:29:04,VALID,998.846,VALID,0,VALID,87.3057,VALID,0,VALID,22.2966,VALID,44,VALID,1.17109,
2011-07-13, 00:30:04,VALID,998.856,VALID,0,VALID,86.7259,VALID,0,VALID,22.3373,VALID,114,VALID,1.54922,
2011-07-13, 00:31:04,VALID,998.819,VALID,0,VALID,87.6414,VALID,0,VALID,22.2983,VALID,77,VALID,1.49023,
2011-07-13, 00:32:04,VALID,998.796,VALID,0,VALID,88.3205,VALID,0,VALID,22.3178,VALID,66,VALID,1.58398,
2011-07-13, 00:33:04,VALID,998.823,VALID,0,VALID,88.3434,VALID,0,VALID,22.2788,VALID,71,VALID,1.00625,
2011-07-13, 00:34:04,VALID,998.821,VALID,0,VALID,88.4883,VALID,0,VALID,22.2592,VALID,79,VALID,0.637109,
2011-07-13, 00:35:04,VALID,998.8,VALID,0,VALID,88.618,VALID,0,VALID,22.2007,VALID,79,VALID,0.227734,
2011-07-13, 00:36:04,VALID,998.769,VALID,0,VALID,88.6486,VALID,0,VALID,22.1617,VALID,79,VALID,0.197656,
2011-07-13, 00:37:04,VALID,998.778,VALID,0,VALID,88.7325,VALID,0,VALID,22.1227,VALID,79,VALID,0.270312,
2011-07-13, 00:38:04,VALID,998.762,VALID,0,VALID,88.9003,VALID,0,VALID,22.0837,VALID,14,VALID,0.7,
2011-07-13, 00:39:04,VALID,998.769,VALID,0,VALID,89.0148,VALID,0,VALID,22.0837,VALID,10,VALID,0.497266,
2011-07-13, 00:40:04,VALID,998.778,VALID,0,VALID,88.9385,VALID,0,VALID,22.0642,VALID,10,VALID,0.455078,
2011-07-13, 00:41:04,VALID,998.772,VALID,0,VALID,88.9461,VALID,0,VALID,22.0447,VALID,10,VALID,0.307422,
2011-07-13, 00:42:04,VALID,998.753,VALID,0,VALID,88.8851,VALID,0,VALID,22.0464,VALID,10,VALID,0.255469,
2011-07-13, 00:43:04,VALID,998.753,VALID,0,VALID,88.7783,VALID,0,VALID,21.9667,VALID,10,VALID,0.686719,
2011-07-13, 00:44:04,VALID,998.757,VALID,0,VALID,88.702,VALID,0,VALID,21.8887,VALID,35,VALID,0.779688,
2011-07-13, 00:45:04,VALID,998.683,VALID,0,VALID,88.969,VALID,0,VALID,21.8301,VALID,34,VALID,1.29766,
2011-07-13, 00:46:04,VALID,998.696,VALID,0,VALID,89.1292,VALID,0,VALID,21.7521,VALID,16,VALID,0.732422,
2011-07-13, 00:47:04,VALID,998.746,VALID,0,VALID,89.2437,VALID,0,VALID,21.6936,VALID,359,VALID,0.305078,
2011-07-13, 00:48:04,VALID,998.803,VALID,0,VALID,89.5412,VALID,0,VALID,21.6546,VALID,359,VALID,0.855859,
2011-07-13, 00:49:04,VALID,998.706,VALID,0,VALID,90.0143,VALID,0,VALID,21.6936,VALID,359,VALID,0.415625,
2011-07-13, 00:50:04,VALID,998.713,VALID,0,VALID,90.3576,VALID,0,VALID,21.7326,VALID,359,VALID,0.905078,
2011-07-13, 00:51:04,VALID,998.735,VALID,0,VALID,90.472,VALID,0,VALID,21.8106,VALID,46,VALID,1.29492,
2011-07-13, 00:52:04,VALID,998.802,VALID,0,VALID,90.0677,VALID,0,VALID,21.7911,VALID,96,VALID,1.47187,
2011-07-13, 00:53:04,VALID,998.753,VALID,0,VALID,89.9151,VALID,0,VALID,21.7716,VALID,96,VALID,0.649219,
2011-07-13, 00:54:04,VALID,998.723,VALID,0,VALID,90.0371,VALID,0,VALID,21.7716,VALID,71,VALID,0.99375,
2011-07-13, 00:55:04,VALID,998.714,VALID,0,VALID,90.3423,VALID,0,VALID,21.7716,VALID,57,VALID,1.80742,
2011-07-13, 00:56:04,VALID,998.735,VALID,0,VALID,90.5331,VALID,0,VALID,21.7911,VALID,57,VALID,1.16953,
2011-07-13, 00:57:04,VALID,998.696,VALID,0,VALID,90.3271,VALID,0,VALID,21.7521,VALID,26,VALID,0.633203,
2011-07-13, 00:58:04,VALID,998.678,VALID,0,VALID,90.3652,VALID,0,VALID,21.7115,VALID,304,VALID,1.27578,
2011-07-13, 00:59:04,VALID,998.691,VALID,0,VALID,90.5712,VALID,0,VALID,21.7521,VALID,304,VALID,0.794531,
2011-07-13, 01:00:04,VALID,998.73,VALID,0,VALID,90.6246,VALID,0,VALID,21.7521,VALID,304,VALID,0.697656,
2011-07-13, 01:01:04,VALID,998.734,VALID,0,VALID,90.617,VALID,0,VALID,21.7131,VALID,304,VALID,0.601563,
2011-07-13, 01:02:04,VALID,998.7,VALID,0,VALID,90.5941,VALID,0,VALID,21.6741,VALID,304,VALID,0.835156,
2011-07-13, 01:03:04,VALID,998.732,VALID,0,VALID,90.5865,VALID,0,VALID,21.6351,VALID,351,VALID,1.05859,
2011-07-13, 01:04:04,VALID,998.711,VALID,0,VALID,90.6094,VALID,0,VALID,21.6351,VALID,8,VALID,0.674219,
2011-07-13, 01:05:04,VALID,998.775,VALID,0,VALID,90.4568,VALID,0,VALID,21.5961,VALID,8,VALID,0.276953,
2011-07-13, 01:06:04,VALID,998.771,VALID,0,VALID,90.2813,VALID,0,VALID,21.536,VALID,8,VALID,0.126563,
2011-07-13, 01:07:04,VALID,998.786,VALID,0,VALID,90.1974,VALID,0,VALID,21.5181,VALID,8,VALID,0.464844,
2011-07-13, 01:08:04,VALID,998.784,VALID,0,VALID,90.3271,VALID,0,VALID,21.5376,VALID,8,VALID,0.497266,
2011-07-13, 01:09:04,VALID,998.779,VALID,0,VALID,90.4949,VALID,0,VALID,21.5376,VALID,8,VALID,0.594531,
2011-07-13, 01:10:04,VALID,998.769,VALID,0,VALID,90.6704,VALID,0,VALID,21.5571,VALID,8,VALID,0.886328,
2011-07-13, 01:11:04,VALID,998.79,VALID,0,VALID,90.7543,VALID,0,VALID,21.6156,VALID,8,VALID,0.752734,
2011-07-13, 01:12:04,VALID,998.805,VALID,0,VALID,90.6704,VALID,0,VALID,21.6156,VALID,8,VALID,0.396094,
2011-07-13, 01:13:04,VALID,998.785,VALID,0,VALID,90.6246,VALID,0,VALID,21.6156,VALID,8,VALID,0.510938,
2011-07-13, 01:14:04,VALID,998.764,VALID,0,VALID,90.5865,VALID,0,VALID,21.575,VALID,8,VALID,0.485156,
2011-07-13, 01:15:04,VALID,998.78,VALID,0,VALID,90.7085,VALID,0,VALID,21.5945,VALID,8,VALID,0.541016,
2011-07-13, 01:16:04,VALID,998.751,VALID,0,VALID,90.9603,VALID,0,VALID,21.653,VALID,77,VALID,1.12461,
2011-07-13, 01:17:04,VALID,998.725,VALID,0,VALID,91.1053,VALID,0,VALID,21.7131,VALID,42,VALID,1.24688,
2011-07-13, 01:18:04,VALID,998.755,VALID,0,VALID,90.9146,VALID,0,VALID,21.6546,VALID,17,VALID,0.866406,
2011-07-13, 01:19:04,VALID,998.726,VALID,0,VALID,90.8001,VALID,0,VALID,21.6156,VALID,17,VALID,0.753516,
2011-07-13, 01:20:04,VALID,998.738,VALID,0,VALID,90.9222,VALID,0,VALID,21.6173,VALID,279,VALID,0.882422,
2011-07-13, 01:21:04,VALID,998.714,VALID,0,VALID,91.0671,VALID,0,VALID,21.614,VALID,276,VALID,0.468359,
2011-07-13, 01:22:04,VALID,998.644,VALID,0,VALID,91.0519,VALID,0,VALID,21.5961,VALID,331,VALID,0.917578,
2011-07-13, 01:23:04,VALID,998.62,VALID,0,VALID,91.0061,VALID,0,VALID,21.5961,VALID,13,VALID,1.73984,
2011-07-13, 01:24:04,VALID,998.623,VALID,0,VALID,90.9298,VALID,0,VALID,21.6351,VALID,6,VALID,1.69805,
2011-07-13, 01:25:04,VALID,998.638,VALID,0,VALID,90.6551,VALID,0,VALID,21.7326,VALID,56,VALID,0.648438,
2011-07-13, 01:26:04,VALID,998.679,VALID,0,VALID,90.1974,VALID,0,VALID,21.7716,VALID,68,VALID,0.472656,
2011-07-13, 01:27:04,VALID,998.671,VALID,0,VALID,89.9074,VALID,0,VALID,21.7911,VALID,68,VALID,0.511719,
2011-07-13, 01:28:04,VALID,998.638,VALID,0,VALID,89.8235,VALID,0,VALID,21.7911,VALID,68,VALID,0.377734,
2011-07-13, 01:29:04,VALID,998.599,VALID,0,VALID,89.7625,VALID,0,VALID,21.77,VALID,68,VALID,0.523047,
2011-07-13, 01:30:04,VALID,998.617,VALID,0,VALID,89.7167,VALID,0,VALID,21.7911,VALID,68,VALID,0.662891,
2011-07-13, 01:31:04,VALID,998.638,VALID,0,VALID,89.5717,VALID,0,VALID,21.7716,VALID,20,VALID,0.644141,
2011-07-13, 01:32:04,VALID,998.594,VALID,0,VALID,89.6557,VALID,0,VALID,21.7911,VALID,308,VALID,0.826563,
2011-07-13, 01:33:04,VALID,998.584,VALID,0,VALID,89.6709,VALID,0,VALID,21.7911,VALID,308,VALID,0.560938,
2011-07-13, 01:34:04,VALID,998.577,VALID,0,VALID,89.6709,VALID,0,VALID,21.7716,VALID,308,VALID,0.538672,
2011-07-13, 01:35:04,VALID,998.577,VALID,0,VALID,89.7167,VALID,0,VALID,21.7911,VALID,308,VALID,0.814844,
2011-07-13, 01:36:04,VALID,998.591,VALID,0,VALID,89.5946,VALID,0,VALID,21.7521,VALID,308,VALID,0.807031,
2011-07-13, 01:37:04,VALID,998.605,VALID,0,VALID,89.5412,VALID,0,VALID,21.6936,VALID,308,VALID,0.410937,
2011-07-13, 01:38:04,VALID,998.633,VALID,0,VALID,89.4344,VALID,0,VALID,21.6351,VALID,308,VALID,0.33125,
2011-07-13, 01:39:04,VALID,998.643,VALID,0,VALID,89.4115,VALID,0,VALID,21.5961,VALID,308,VALID,0.00351562,
2011-07-13, 01:40:04,VALID,998.614,VALID,0,VALID,89.5412,VALID,0,VALID,21.5571,VALID,308,VALID,0.682813,
2011-07-13, 01:41:04,VALID,998.613,VALID,0,VALID,89.8769,VALID,0,VALID,21.5376,VALID,308,VALID,0.569531,
2011-07-13, 01:42:04,VALID,998.582,VALID,0,VALID,90.1363,VALID,0,VALID,21.5766,VALID,308,VALID,0.900391,
2011-07-13, 01:43:04,VALID,998.618,VALID,0,VALID,90.2431,VALID,0,VALID,21.5961,VALID,334,VALID,1.10078,
2011-07-13, 01:44:04,VALID,998.645,VALID,0,VALID,90.0371,VALID,0,VALID,21.6156,VALID,10,VALID,0.895312,
2011-07-13, 01:45:04,VALID,998.69,VALID,0,VALID,89.3734,VALID,0,VALID,21.4986,VALID,38,VALID,0.555469,
2011-07-13, 01:46:04,VALID,998.678,VALID,0,VALID,89.6175,VALID,0,VALID,21.4401,VALID,38,VALID,0.655078,
2011-07-13, 01:47:04,VALID,998.648,VALID,0,VALID,90.0448,VALID,0,VALID,21.4596,VALID,38,VALID,1.01289,
2011-07-13, 01:48:04,VALID,998.636,VALID,0,VALID,89.9456,VALID,0,VALID,21.4986,VALID,36,VALID,1.31875,
2011-07-13, 01:49:04,VALID,998.623,VALID,0,VALID,89.5031,VALID,0,VALID,21.4401,VALID,37,VALID,1.37891,
2011-07-13, 01:50:04,VALID,998.613,VALID,0,VALID,89.1368,VALID,0,VALID,21.4011,VALID,38,VALID,1.36563,
2011-07-13, 01:51:04,VALID,998.619,VALID,0,VALID,89.3963,VALID,0,VALID,21.3816,VALID,38,VALID,0.927734,
2011-07-13, 01:52:04,VALID,998.559,VALID,0,VALID,89.4191,VALID,0,VALID,21.4011,VALID,22,VALID,0.827344,
2011-07-13, 01:53:04,VALID,998.515,VALID,0,VALID,89.2742,VALID,0,VALID,21.3816,VALID,15,VALID,0.997656,
2011-07-13, 01:54:04,VALID,998.512,VALID,0,VALID,89.1903,VALID,0,VALID,21.3215,VALID,15,VALID,0.669922,
2011-07-13, 01:55:04,VALID,998.488,VALID,0,VALID,89.1063,VALID,0,VALID,21.2646,VALID,15,VALID,0.311328,
2011-07-13, 01:56:04,VALID,998.483,VALID,0,VALID,89.2894,VALID,0,VALID,21.2256,VALID,15,VALID,0.623047,
2011-07-13, 01:57:04,VALID,998.501,VALID,0,VALID,89.5565,VALID,0,VALID,21.1866,VALID,28,VALID,0.763281,
2011-07-13, 01:58:04,VALID,998.527,VALID,0,VALID,89.8998,VALID,0,VALID,21.1671,VALID,51,VALID,1.01914,
2011-07-13, 01:59:04,VALID,998.535,VALID,0,VALID,90.2584,VALID,0,VALID,21.2061,VALID,51,VALID,1.0082,
2011-07-13, 02:00:04,VALID,998.51,VALID,0,VALID,90.3805,VALID,0,VALID,21.2256,VALID,51,VALID,0.985156,
2011-07-13, 02:01:04,VALID,998.508,VALID,0,VALID,90.3881,VALID,0,VALID,21.2451,VALID,51,VALID,0.923437,
2011-07-13, 02:02:04,VALID,998.5,VALID,0,VALID,90.2966,VALID,0,VALID,21.2451,VALID,35,VALID,1.53047,
2011-07-13, 02:03:04,VALID,998.489,VALID,0,VALID,90.1745,VALID,0,VALID,21.2256,VALID,31,VALID,1.81172,
2011-07-13, 02:04:04,VALID,998.475,VALID,0,VALID,90.1821,VALID,0,VALID,21.1866,VALID,31,VALID,1.71094,
2011-07-13, 02:05:04,VALID,998.458,VALID,0,VALID,90.35,VALID,0,VALID,21.1866,VALID,29,VALID,2.16953,
2011-07-13, 02:06:04,VALID,998.49,VALID,0,VALID,90.4873,VALID,0,VALID,21.1866,VALID,42,VALID,1.26836,
2011-07-13, 02:07:04,VALID,998.472,VALID,0,VALID,90.7085,VALID,0,VALID,21.1866,VALID,51,VALID,1.0125,
2011-07-13, 02:08:04,VALID,998.47,VALID,0,VALID,90.9603,VALID,0,VALID,21.2061,VALID,52,VALID,0.995313,
2011-07-13, 02:09:04,VALID,998.485,VALID,0,VALID,91.0977,VALID,0,VALID,21.2256,VALID,63,VALID,0.480859,
2011-07-13, 02:10:04,VALID,998.434,VALID,0,VALID,91.174,VALID,0,VALID,21.1866,VALID,57,VALID,0.510547,
2011-07-13, 02:11:04,VALID,998.418,VALID,0,VALID,91.1968,VALID,0,VALID,21.1866,VALID,57,VALID,0.263672,
2011-07-13, 02:12:04,VALID,998.429,VALID,0,VALID,91.2731,VALID,0,VALID,21.1866,VALID,57,VALID,0.167969,
2011-07-13, 02:13:04,VALID,998.378,VALID,0,VALID,91.3418,VALID,0,VALID,21.1866,VALID,57,VALID,0.439063,
2011-07-13, 02:14:04,VALID,998.426,VALID,0,VALID,91.4486,VALID,0,VALID,21.2256,VALID,57,VALID,0.539063,
2011-07-13, 02:15:04,VALID,998.406,VALID,0,VALID,91.4868,VALID,0,VALID,21.2451,VALID,57,VALID,0.502734,
2011-07-13, 02:16:04,VALID,998.409,VALID,0,VALID,91.4791,VALID,0,VALID,21.2045,VALID,57,VALID,0.636328,
2011-07-13, 02:17:04,VALID,998.394,VALID,0,VALID,91.4715,VALID,0,VALID,21.2256,VALID,57,VALID,0.873828,
2011-07-13, 02:18:04,VALID,998.406,VALID,0,VALID,91.4944,VALID,0,VALID,21.2451,VALID,57,VALID,1.15469,
2011-07-13, 02:19:04,VALID,998.387,VALID,0,VALID,91.4715,VALID,0,VALID,21.2451,VALID,63,VALID,1.54688,
2011-07-13, 02:20:04,VALID,998.344,VALID,0,VALID,91.3876,VALID,0,VALID,21.2451,VALID,63,VALID,1.36953,
2011-07-13, 02:21:04,VALID,998.335,VALID,0,VALID,91.296,VALID,0,VALID,21.2256,VALID,63,VALID,1.19023,
2011-07-13, 02:22:04,VALID,998.301,VALID,0,VALID,91.235,VALID,0,VALID,21.2256,VALID,63,VALID,0.866797,
2011-07-13, 02:23:04,VALID,998.286,VALID,0,VALID,91.1358,VALID,0,VALID,21.2061,VALID,63,VALID,0.364453,
2011-07-13, 02:24:04,VALID,998.275,VALID,0,VALID,91.1053,VALID,0,VALID,21.2061,VALID,63,VALID,0.464063,
2011-07-13, 02:25:04,VALID,998.262,VALID,0,VALID,91.1968,VALID,0,VALID,21.2256,VALID,63,VALID,0.315625,
2011-07-13, 02:26:04,VALID,998.228,VALID,0,VALID,91.1968,VALID,0,VALID,21.2451,VALID,63,VALID,0,
2011-07-13, 02:27:04,VALID,998.24,VALID,0,VALID,91.1892,VALID,0,VALID,21.2451,VALID,63,VALID,0,
2011-07-13, 02:28:04,VALID,998.276,VALID,0,VALID,91.1434,VALID,0,VALID,21.2256,VALID,63,VALID,0.0128906,
2011-07-13, 02:29:04,VALID,998.267,VALID,0,VALID,91.0824,VALID,0,VALID,21.2256,VALID,63,VALID,0,
2011-07-13, 02:30:04,VALID,998.318,VALID,0,VALID,91.1053,VALID,0,VALID,21.2256,VALID,63,VALID,0.235156,
2011-07-13, 02:31:04,VALID,998.314,VALID,0,VALID,91.1282,VALID,0,VALID,21.2451,VALID,63,VALID,0,
2011-07-13, 02:32:04,VALID,998.35,VALID,0,VALID,91.1282,VALID,0,VALID,21.2841,VALID,63,VALID,0.558594,
2011-07-13, 02:33:04,VALID,998.365,VALID,0,VALID,91.1434,VALID,0,VALID,21.3231,VALID,63,VALID,0.205078,
2011-07-13, 02:34:04,VALID,998.324,VALID,0,VALID,91.2197,VALID,0,VALID,21.4011,VALID,30,VALID,1.125,
2011-07-13, 02:35:04,VALID,998.312,VALID,0,VALID,90.8993,VALID,0,VALID,21.4986,VALID,30,VALID,0.907812,
2011-07-13, 02:36:04,VALID,998.319,VALID,0,VALID,90.3728,VALID,0,VALID,21.5376,VALID,30,VALID,0.891797,
2011-07-13, 02:37:04,VALID,998.323,VALID,0,VALID,90.0677,VALID,0,VALID,21.5766,VALID,30,VALID,0.535937,
2011-07-13, 02:38:04,VALID,998.278,VALID,0,VALID,89.5946,VALID,0,VALID,21.5977,VALID,82,VALID,0.630469,
2011-07-13, 02:39:04,VALID,998.275,VALID,0,VALID,89.2666,VALID,0,VALID,21.5571,VALID,96,VALID,0.145703,
2011-07-13, 02:40:04,VALID,998.296,VALID,0,VALID,89.381,VALID,0,VALID,21.5571,VALID,96,VALID,0.0628906,
2011-07-13, 02:41:04,VALID,998.321,VALID,0,VALID,89.4191,VALID,0,VALID,21.5766,VALID,96,VALID,0.332422,
2011-07-13, 02:42:04,VALID,998.321,VALID,0,VALID,89.442,VALID,0,VALID,21.5766,VALID,96,VALID,0.000390625,
2011-07-13, 02:43:04,VALID,998.306,VALID,0,VALID,89.4878,VALID,0,VALID,21.5977,VALID,96,VALID,0.359375,
2011-07-13, 02:44:04,VALID,998.33,VALID,0,VALID,89.648,VALID,0,VALID,21.6156,VALID,96,VALID,0.788281,
2011-07-13, 02:45:04,VALID,998.317,VALID,0,VALID,89.7854,VALID,0,VALID,21.6741,VALID,96,VALID,1.00781,
2011-07-13, 02:46:04,VALID,998.337,VALID,0,VALID,89.7243,VALID,0,VALID,21.6741,VALID,96,VALID,1.16211,
2011-07-13, 02:47:04,VALID,998.362,VALID,0,VALID,89.6709,VALID,0,VALID,21.6351,VALID,96,VALID,1.14375,
2011-07-13, 02:48:04,VALID,998.373,VALID,0,VALID,89.7091,VALID,0,VALID,21.6156,VALID,96,VALID,0.967969,
2011-07-13, 02:49:04,VALID,998.393,VALID,0,VALID,89.854,VALID,0,VALID,21.5961,VALID,96,VALID,0.989062,
2011-07-13, 02:50:04,VALID,998.393,VALID,0,VALID,90.3881,VALID,0,VALID,21.6563,VALID,112,VALID,1.13359,
2011-07-13, 02:51:04,VALID,998.394,VALID,0,VALID,90.7696,VALID,0,VALID,21.6546,VALID,112,VALID,0.955859,
2011-07-13, 02:52:04,VALID,998.416,VALID,0,VALID,90.9985,VALID,0,VALID,21.6335,VALID,112,VALID,0.938672,
2011-07-13, 02:53:04,VALID,998.419,VALID,0,VALID,91.0824,VALID,0,VALID,21.6546,VALID,112,VALID,0.965625,
2011-07-13, 02:54:04,VALID,998.415,VALID,0,VALID,91.1206,VALID,0,VALID,21.6351,VALID,112,VALID,0.974609,
2011-07-13, 02:55:04,VALID,998.413,VALID,0,VALID,91.1892,VALID,0,VALID,21.6156,VALID,112,VALID,1.225,
2011-07-13, 02:56:04,VALID,998.469,VALID,0,VALID,91.2808,VALID,0,VALID,21.5961,VALID,112,VALID,1.05,
2011-07-13, 02:57:04,VALID,998.47,VALID,0,VALID,91.3876,VALID,0,VALID,21.6156,VALID,112,VALID,0.704687,
2011-07-13, 02:58:04,VALID,998.491,VALID,0,VALID,91.4563,VALID,0,VALID,21.6368,VALID,112,VALID,0.746875,
2011-07-13, 02:59:04,VALID,998.47,VALID,0,VALID,91.5173,VALID,0,VALID,21.6156,VALID,112,VALID,0.702734,
2011-07-13, 03:00:04,VALID,998.46,VALID,0,VALID,91.5554,VALID,0,VALID,21.6156,VALID,112,VALID,0.557031,
2011-07-13, 03:01:04,VALID,998.45,VALID,0,VALID,91.5478,VALID,0,VALID,21.6156,VALID,112,VALID,0.551562,
2011-07-13, 03:02:04,VALID,998.465,VALID,0,VALID,91.5936,VALID,0,VALID,21.6351,VALID,112,VALID,0.252734,
2011-07-13, 03:03:04,VALID,998.429,VALID,0,VALID,91.6012,VALID,0,VALID,21.6351,VALID,112,VALID,0,
2011-07-13, 03:04:04,VALID,998.404,VALID,0,VALID,91.6623,VALID,0,VALID,21.6546,VALID,112,VALID,0.567969,
2011-07-13, 03:05:04,VALID,998.389,VALID,0,VALID,91.708,VALID,0,VALID,21.6953,VALID,112,VALID,0.647266,
2011-07-13, 03:06:04,VALID,998.38,VALID,0,VALID,91.6928,VALID,0,VALID,21.7131,VALID,112,VALID,0.445703,
2011-07-13, 03:07:04,VALID,998.375,VALID,0,VALID,91.6241,VALID,0,VALID,21.7326,VALID,112,VALID,0.348828,
2011-07-13, 03:08:04,VALID,998.4,VALID,0,VALID,91.5173,VALID,0,VALID,21.7326,VALID,112,VALID,0.525781,
2011-07-13, 03:09:04,VALID,998.408,VALID,0,VALID,91.4486,VALID,0,VALID,21.7521,VALID,112,VALID,0.830469,
2011-07-13, 03:10:04,VALID,998.425,VALID,0,VALID,91.3037,VALID,0,VALID,21.7505,VALID,112,VALID,1.1918,
2011-07-13, 03:11:04,VALID,998.443,VALID,0,VALID,91.0824,VALID,0,VALID,21.7911,VALID,112,VALID,1.10898,
2011-07-13, 03:12:04,VALID,998.46,VALID,0,VALID,90.9527,VALID,0,VALID,21.8106,VALID,118,VALID,1.45,
2011-07-13, 03:13:04,VALID,998.452,VALID,0,VALID,90.884,VALID,0,VALID,21.8285,VALID,121,VALID,0.863672,
2011-07-13, 03:14:04,VALID,998.472,VALID,0,VALID,90.7314,VALID,0,VALID,21.8301,VALID,121,VALID,1.21172,
2011-07-13, 03:15:04,VALID,998.48,VALID,0,VALID,90.678,VALID,0,VALID,21.8106,VALID,112,VALID,1.24219,
2011-07-13, 03:16:04,VALID,998.488,VALID,0,VALID,90.6399,VALID,0,VALID,21.8106,VALID,106,VALID,1.15703,
2011-07-13, 03:17:04,VALID,998.466,VALID,0,VALID,90.6628,VALID,0,VALID,21.7895,VALID,88,VALID,0.809766,
2011-07-13, 03:18:04,VALID,998.438,VALID,0,VALID,90.5788,VALID,0,VALID,21.7716,VALID,87,VALID,0.705859,
2011-07-13, 03:19:04,VALID,998.453,VALID,0,VALID,90.1974,VALID,0,VALID,21.6741,VALID,44,VALID,0.594141,
2011-07-13, 03:20:04,VALID,998.421,VALID,0,VALID,90.0829,VALID,0,VALID,21.5766,VALID,44,VALID,0.464453,
2011-07-13, 03:21:04,VALID,998.452,VALID,0,VALID,90.2279,VALID,0,VALID,21.5376,VALID,44,VALID,0.544141,
2011-07-13, 03:22:04,VALID,998.416,VALID,0,VALID,90.472,VALID,0,VALID,21.5571,VALID,44,VALID,0.575781,
2011-07-13, 03:23:04,VALID,998.444,VALID,0,VALID,90.6017,VALID,0,VALID,21.5571,VALID,44,VALID,0.33125,
2011-07-13, 03:24:04,VALID,998.412,VALID,0,VALID,90.6475,VALID,0,VALID,21.5376,VALID,44,VALID,0.357031,
2011-07-13, 03:25:04,VALID,998.42,VALID,0,VALID,90.6399,VALID,0,VALID,21.5376,VALID,44,VALID,0.364062,
2011-07-13, 03:26:04,VALID,998.422,VALID,0,VALID,90.7467,VALID,0,VALID,21.5376,VALID,44,VALID,0.325391,
2011-07-13, 03:27:04,VALID,998.467,VALID,0,VALID,90.8077,VALID,0,VALID,21.5181,VALID,46,VALID,0.700781,
2011-07-13, 03:28:04,VALID,998.454,VALID,0,VALID,91.0443,VALID,0,VALID,21.5571,VALID,50,VALID,0.824609,
2011-07-13, 03:29:04,VALID,998.49,VALID,0,VALID,90.9222,VALID,0,VALID,21.5376,VALID,50,VALID,1.14375,
2011-07-13, 03:30:04,VALID,998.494,VALID,0,VALID,90.6017,VALID,0,VALID,21.4791,VALID,46,VALID,1.04883,
2011-07-13, 03:31:04,VALID,998.477,VALID,0,VALID,90.5712,VALID,0,VALID,21.4401,VALID,45,VALID,1.09844,
2011-07-13, 03:32:04,VALID,998.498,VALID,0,VALID,90.5102,VALID,0,VALID,21.3621,VALID,45,VALID,0.734766,
2011-07-13, 03:33:04,VALID,998.482,VALID,0,VALID,90.556,VALID,0,VALID,21.3036,VALID,45,VALID,0.714453,
2011-07-13, 03:34:04,VALID,998.453,VALID,0,VALID,90.7925,VALID,0,VALID,21.2841,VALID,45,VALID,0.502734,
2011-07-13, 03:35:04,VALID,998.484,VALID,0,VALID,90.968,VALID,0,VALID,21.2435,VALID,45,VALID,0.400391,
2011-07-13, 03:36:04,VALID,998.452,VALID,0,VALID,91.1511,VALID,0,VALID,21.2646,VALID,46,VALID,0.344141,
2011-07-13, 03:37:04,VALID,998.428,VALID,0,VALID,91.296,VALID,0,VALID,21.2451,VALID,46,VALID,0.311328,
2011-07-13, 03:38:04,VALID,998.436,VALID,0,VALID,91.4105,VALID,0,VALID,21.2662,VALID,46,VALID,0.320703,
2011-07-13, 03:39:04,VALID,998.418,VALID,0,VALID,91.586,VALID,0,VALID,21.2646,VALID,46,VALID,0.335156,
2011-07-13, 03:40:04,VALID,998.432,VALID,0,VALID,91.708,VALID,0,VALID,21.2841,VALID,46,VALID,0.583594,
2011-07-13, 03:41:04,VALID,998.443,VALID,0,VALID,91.8988,VALID,0,VALID,21.3426,VALID,57,VALID,0.528906,
2011-07-13, 03:42:04,VALID,998.475,VALID,0,VALID,91.9827,VALID,0,VALID,21.3816,VALID,57,VALID,0.422656,
2011-07-13, 03:43:04,VALID,998.458,VALID,0,VALID,92.0209,VALID,0,VALID,21.4206,VALID,57,VALID,0.376563,
2011-07-13, 03:44:04,VALID,998.446,VALID,0,VALID,92.0132,VALID,0,VALID,21.419,VALID,68,VALID,0.160938,
2011-07-13, 03:45:04,VALID,998.459,VALID,0,VALID,92.0132,VALID,0,VALID,21.458,VALID,68,VALID,0,
2011-07-13, 03:46:04,VALID,998.472,VALID,0,VALID,91.9217,VALID,0,VALID,21.4385,VALID,68,VALID,0,